Daily Data: Northwest Mesa

   
2/19/18
Time         Wind Dir   Wind Spd  Wind Gust   Humidity       Temp  Dew Point   Barom SL  DailyRain   HourRain   RainRate
                            mph        mph          %         F         F         in         in         in      in/hr
12:00am           208          2          9         50       63.4       44.5      29.70       0.00       0.00      0.000
12:05am           202          3          4         50       63.1       44.2      29.70       0.00       0.00      0.000
12:10am           181          4          8         51       62.9       44.5      29.70       0.00       0.00      0.000
12:15am           162          0          8         51       62.9       44.5      29.70       0.00       0.00      0.000
12:20am           179          2          5         51       62.7       44.3      29.70       0.00       0.00      0.000
12:25am           143          0          5         52       62.6       44.7      29.70       0.00       0.00      0.000
12:30am           147          2          5         52       62.4       44.6      29.70       0.00       0.00      0.000
12:35am           144          2          5         53       62.3       45.0      29.70       0.00       0.00      0.000
12:40am           144          0          5         53       62.1       44.8      29.70       0.00       0.00      0.000
12:45am           154          1          3         54       62.0       45.2      29.69       0.00       0.00      0.000
12:50am           165          4          7         53       62.6       45.2      29.69       0.00       0.00      0.000
12:55am           186          2         10         53       63.1       45.7      29.69       0.00       0.00      0.000
1:00am            202          7         14         53       63.2       45.8      29.69       0.00       0.00      0.000
1:05am            169          3         12         53       63.2       45.8      29.69       0.00       0.00      0.000
1:10am            188          6         11         54       62.9       46.0      29.69       0.00       0.00      0.000
1:15am            161          5         13         55       62.6       46.2      29.69       0.00       0.00      0.000
1:20am            171          2         11         56       62.4       46.5      29.69       0.00       0.00      0.000
1:25am            161          5         12         57       62.4       47.0      29.69       0.00       0.00      0.000
1:30am            186          2         12         57       62.3       46.9      29.69       0.00       0.00      0.000
1:35am            186          2          8         57       62.3       46.9      29.69       0.00       0.00      0.000
1:40am            168          4         10         58       62.3       47.4      29.69       0.00       0.00      0.000
1:45am            154          4         11         58       62.1       47.2      29.68       0.00       0.00      0.000
1:50am            172          4          9         58       62.1       47.2      29.68       0.00       0.00      0.000
1:55am            174          6         12         58       62.1       47.2      29.68       0.00       0.00      0.000
2:00am            152          5          8         59       61.8       47.3      29.68       0.00       0.00      0.000
2:05am            151          1          8         59       61.6       47.1      29.68       0.00       0.00      0.000
2:10am            145          1          6         59       61.5       47.1      29.68       0.00       0.00      0.000
2:15am            147          5          6         60       61.3       47.3      29.67       0.00       0.00      0.000
2:20am            134          6          7         60       61.2       47.2      29.67       0.00       0.00      0.000
2:25am            148          2          6         61       61.0       47.5      29.67       0.00       0.00      0.000
2:30am            150          0          6         61       61.0       47.5      29.68       0.00       0.00      0.000
2:35am            136          0          5         61       61.0       47.5      29.68       0.00       0.00      0.000
2:40am            152          0          6         62       61.0       47.9      29.68       0.00       0.00      0.000
2:45am            158          0          5         62       60.9       47.8      29.67       0.00       0.00      0.000
2:50am            158          0          2         62       60.9       47.8      29.67       0.00       0.00      0.000
2:55am            155          1          2         63       60.9       48.2      29.67       0.00       0.00      0.000
3:00am            155          0          1         63       60.9       48.2      29.67       0.00       0.00      0.000
3:05am            124          4          5         64       60.9       48.7      29.67       0.00       0.00      0.000
3:10am            158          3          5         64       60.9       48.7      29.67       0.00       0.00      0.000
3:15am            161          5         12         65       61.2       49.4      29.67       0.00       0.00      0.000
3:20am            161          4          8         65       61.3       49.4      29.67       0.00       0.00      0.000
3:25am            215          1          6         66       61.3       49.9      29.67       0.00       0.00      0.000
3:30am            192          3          5         66       61.2       49.8      29.67       0.00       0.00      0.000
3:35am            192          2          8         66       61.2       49.8      29.67       0.00       0.00      0.000
3:40am            191          2          7         66       61.0       49.6      29.67       0.00       0.00      0.000
3:45am            175          0          7         67       61.0       50.0      29.66       0.00       0.00      0.000
3:50am            179          0         10         67       61.2       50.2      29.66       0.00       0.00      0.000
3:55am            186          0          7         66       61.2       49.8      29.66       0.00       0.00      0.000
4:00am            224          3          6         66       61.0       49.6      29.66       0.00       0.00      0.000
4:05am            195          6          7         66       61.2       49.8      29.66       0.00       0.00      0.000
4:10am            151          6          7         66       61.2       49.8      29.66       0.00       0.00      0.000
4:15am            195          1          8         66       61.0       49.6      29.66       0.00       0.00      0.000
4:20am            198          8          8         66       61.0       49.6      29.66       0.00       0.00      0.000
4:25am            213          1         16         65       61.2       49.4      29.66       0.00       0.00      0.000
4:30am            175          2          7         65       61.0       49.2      29.65       0.00       0.00      0.000
4:35am            188          2         17         65       61.2       49.4      29.65       0.00       0.00      0.000
4:40am            192         20         20         65       61.2       49.4      29.65       0.00       0.00      0.000
4:45am            175          4         20         65       61.0       49.2      29.66       0.00       0.00      0.000
4:50am            222          2         12         65       60.9       49.1      29.66       0.00       0.00      0.000
4:55am            175          6         14         65       60.7       48.9      29.66       0.00       0.00      0.000
5:00am            165          6         13         65       60.5       48.7      29.65       0.00       0.00      0.000
5:05am            172         11         13         65       60.4       48.6      29.65       0.00       0.00      0.000
5:10am            157          7         11         66       60.2       48.8      29.65       0.00       0.00      0.000
5:15am            185         10         16         66       60.1       48.7      29.64       0.00       0.00      0.000
5:20am            208         13         14         66       60.1       48.7      29.64       0.00       0.00      0.000
5:25am            191          5         18         66       59.9       48.5      29.64       0.00       0.00      0.000
5:30am            144         11         14         67       59.8       48.8      29.65       0.00       0.00      0.000
5:35am            188         13         18         67       59.8       48.8      29.65       0.00       0.00      0.000
5:40am            143          2         13         67       59.6       48.6      29.65       0.00       0.00      0.000
5:45am            152          4         13         67       59.5       48.5      29.64       0.00       0.00      0.000
5:50am            185          7         13         68       59.3       48.8      29.64       0.00       0.00      0.000
5:55am            182          8         12         68       59.2       48.7      29.64       0.00       0.00      0.000
6:00am            157          5         11         68       58.9       48.4      29.65       0.00       0.00      0.000
6:05am            154          7          9         69       58.9       48.8      29.65       0.00       0.00      0.000
6:10am            189          3         11         69       58.7       48.6      29.65       0.00       0.00      0.000
6:15am            169          1         11         69       58.6       48.5      29.66       0.00       0.00      0.000
6:20am            174          3         13         69       58.4       48.3      29.66       0.00       0.00      0.000
6:25am            185          2          5         70       58.4       48.7      29.66       0.00       0.00      0.000
6:30am            121          7          8         70       58.3       48.6      29.66       0.00       0.00      0.000
6:35am            182         10         10         70       58.3       48.6      29.66       0.00       0.00      0.000
6:40am            188          1         10         70       58.1       48.4      29.66       0.00       0.00      0.000
6:45am            165          4          8         70       58.1       48.4      29.66       0.00       0.00      0.000
6:50am            150          1          7         70       58.1       48.4      29.66       0.00       0.00      0.000
6:55am            186          5          8         70       58.0       48.3      29.66       0.00       0.00      0.000
7:00am            157          3          8         70       58.1       48.4      29.67       0.00       0.00      0.000
7:05am            168          3         10         70       58.0       48.3      29.67       0.00       0.00      0.000
7:10am            186          2          9         70       58.0       48.3      29.67       0.00       0.00      0.000
7:15am            158          3         11         70       58.0       48.3      29.68       0.00       0.00      0.000
7:20am            179          5          8         70       57.8       48.1      29.68       0.00       0.00      0.000
7:25am            162          2         11         70       57.8       48.1      29.68       0.00       0.00      0.000
7:30am            160          8          8         70       57.6       47.9      29.68       0.00       0.00      0.000
7:35am            155          4         11         70       57.8       48.1      29.68       0.00       0.00      0.000
7:40am            193          6         11         70       58.0       48.3      29.68       0.00       0.00      0.000
7:45am            160          1          9         70       58.0       48.3      29.67       0.00       0.00      0.000
7:50am            161          3          7         70       58.0       48.3      29.67       0.00       0.00      0.000
7:55am            161          6         11         70       58.0       48.3      29.67       0.00       0.00      0.000
8:00am            167          9         10         70       58.0       48.3      29.68       0.00       0.00      0.000
8:05am            169          2         18         69       58.0       47.9      29.68       0.00       0.00      0.000
8:10am            143          7         14         68       58.1       47.6      29.68       0.00       0.00      0.000
8:15am            145          7         10         68       58.1       47.6      29.69       0.00       0.00      0.000
8:20am            157         10         10         68       58.3       47.8      29.69       0.00       0.00      0.000
8:25am            140          4         10         68       58.3       47.8      29.69       0.00       0.00      0.000
8:30am            176          3         13         68       58.3       47.8      29.68       0.00       0.00      0.000
8:35am            172          0         11         68       58.4       47.9      29.68       0.00       0.00      0.000
8:40am            144          5         14         67       58.9       48.0      29.68       0.00       0.00      0.000
8:45am            167          3         11         66       59.5       48.1      29.69       0.00       0.00      0.000
8:50am            160          6         12         65       59.5       47.7      29.69       0.00       0.00      0.000
8:55am            174          8         12         63       59.9       47.3      29.69       0.00       0.00      0.000
9:00am            226         12         15         62       60.2       47.1      29.68       0.00       0.00      0.000
9:05am            168          4         12         61       60.7       47.2      29.68       0.00       0.00      0.000
9:10am            148          7         20         59       60.5       46.1      29.68       0.00       0.00      0.000
9:15am            185         19         19         59       60.4       46.0      29.68       0.00       0.00      0.000
9:20am            200         13         19         59       60.2       45.8      29.68       0.00       0.00      0.000
9:25am            217          3         20         58       60.7       45.9      29.68       0.00       0.00      0.000
9:30am            205          5         18         56       61.3       45.5      29.68       0.00       0.00      0.000
9:35am            206          8         17         56       62.0       46.1      29.68       0.00       0.00      0.000
9:40am            178          7         13         54       62.4       45.6      29.68       0.00       0.00      0.000
9:45am            138         10         16         53       62.7       45.3      29.67       0.00       0.00      0.000
9:50am            172          7         16         52       62.9       45.0      29.67       0.00       0.00      0.000
9:55am            215          4         18         51       62.9       44.5      29.67       0.00       0.00      0.000
10:00am           215         13         14         50       63.2       44.3      29.67       0.00       0.00      0.000
10:05am           233          8         19         50       63.2       44.3      29.67       0.00       0.00      0.000
10:10am           205         13         14         48       63.9       43.8      29.67       0.00       0.00      0.000
10:15am           168          6         14         49       63.9       44.4      29.67       0.00       0.00      0.000
10:20am           226          5         17         48       63.9       43.8      29.67       0.00       0.00      0.000
10:25am           181         12         16         47       63.9       43.3      29.67       0.00       0.00      0.000
10:30am           191         11         17         47       63.2       42.7      29.67       0.00       0.00      0.000
10:35am           172         13         17         47       63.5       42.9      29.67       0.00       0.00      0.000